Theta_e
360 360 361 365 362 363 363 360 362 360 352 339 337 341 341 345 346 348 349 348 350 351 350 349 352 351 351 354 355 354 353 353 352 350 351 350 348 348 347 348 348 348 348 347 348 348 347 347 349 349 348 347 347 346 345 345 344 344 344 344 345 345 344 343 342 341 340 340 341 342 342 342 341 340 338 336 335 335 335 336 336 335 333 331 330 329 330 332 333 334 334 335 336 336 337 337 338
356 357 357 362 363 365 363 361 366 355 341 336 338 340 340 345 347 347 348 347 351 351 351 351 352 352 353 353 352 352 353 353 351 350 350 348 349 348 347 348 348 348 348 347 348 348 348 347 348 349 349 348 347 346 346 345 344 344 345 345 345 344 343 343 343 342 342 341 341 341 340 341 341 341 340 339 338 337 337 336 336 335 333 331 331 332 332 333 335 335 335 336 336 337 337 337 338
354 355 356 360 363 364 360 364 367 345 336 337 335 341 342 343 346 346 346 347 351 350 351 350 351 352 352 352 352 354 353 351 349 349 350 348 348 347 347 348 348 348 347 347 347 347 348 347 346 348 348 348 347 347 346 345 344 345 346 345 344 343 343 343 342 342 341 341 340 339 339 339 340 340 340 340 339 337 337 336 335 333 333 333 333 333 334 335 336 336 337 338 338 338 338 338 338
355 356 358 358 362 364 364 371 372 346 334 334 332 338 343 344 345 344 346 347 349 350 350 350 352 350 350 353 352 352 352 351 349 349 350 348 347 347 346 347 347 347 346 346 346 346 346 346 345 347 348 348 347 347 346 345 345 345 344 344 343 343 342 342 341 341 340 340 340 339 339 340 340 340 339 338 338 337 337 336 335 335 335 335 335 335 336 337 338 338 338 338 338 338 338 338 339
357 357 357 358 362 362 367 369 364 346 334 334 333 336 341 344 344 343 344 345 346 349 350 350 351 349 349 352 351 352 351 351 348 347 348 347 346 347 346 346 346 346 345 344 344 345 346 346 345 346 347 346 346 346 345 345 345 344 344 344 343 343 343 342 342 341 340 340 340 340 341 341 341 340 339 338 338 338 338 338 338 339 338 337 337 337 338 338 339 338 338 337 337 336 336 337 338
354 356 356 358 359 354 365 357 340 337 337 339 336 336 344 344 345 344 345 346 346 347 348 350 350 350 351 351 351 351 351 349 348 347 347 347 346 346 347 346 346 346 345 344 344 344 345 346 346 346 345 344 345 345 344 344 344 343 343 344 344 344 343 343 343 342 342 341 341 341 341 341 341 341 340 340 340 340 340 339 339 339 338 337 337 338 338 338 338 337 336 336 336 336 336 336 336
351 355 355 355 354 354 367 350 333 335 335 338 338 338 342 344 346 344 345 346 347 348 349 351 350 351 352 352 352 351 350 348 347 346 346 346 346 346 347 346 345 346 346 345 344 344 345 345 345 345 344 344 344 344 344 344 344 344 344 344 344 344 343 344 343 343 343 343 342 341 341 341 341 341 340 341 340 340 340 339 338 337 337 337 337 337 337 337 336 336 335 336 336 336 335 335 335
350 353 351 355 357 359 361 344 336 340 336 335 336 336 338 343 345 344 346 346 348 349 348 351 352 353 353 353 354 353 350 349 347 347 347 346 346 346 346 346 345 345 345 345 345 345 345 344 344 344 344 343 343 344 344 344 345 345 345 345 345 345 344 344 343 342 342 342 342 341 341 340 340 340 340 340 340 340 339 339 338 337 337 337 337 337 337 337 336 335 335 335 336 336 336 336 336
347 350 346 355 360 353 347 340 340 339 337 336 335 335 337 342 345 345 348 348 349 349 349 351 350 353 353 355 355 354 351 349 348 348 349 348 347 346 346 346 345 344 345 345 346 345 345 345 344 343 343 342 343 343 344 345 344 345 345 344 343 343 343 343 342 342 342 341 341 341 341 340 340 339 339 340 340 340 339 338 338 338 338 338 337 336 336 336 335 335 335 336 337 337 337 337 337
346 347 343 354 359 346 341 342 341 338 337 337 337 338 339 343 345 347 349 349 350 350 351 351 350 353 354 355 356 354 351 348 349 350 350 349 347 346 346 345 344 344 344 345 345 344 346 346 344 344 344 344 344 344 344 345 344 344 343 343 342 341 342 342 342 341 341 341 340 340 339 339 339 339 339 340 340 340 339 339 338 337 336 336 335 335 335 335 336 336 337 338 338 337 338 337 339
345 343 344 356 355 344 340 342 341 338 339 339 340 341 344 346 347 348 350 350 350 351 351 351 351 353 354 355 356 354 351 349 350 351 351 350 348 347 346 345 344 343 343 344 344 345 347 347 345 346 347 346 346 345 345 345 344 344 343 343 342 341 342 341 341 341 340 339 339 339 338 338 338 338 339 339 340 340 339 339 337 335 333 334 334 335 335 336 338 338 339 339 338 338 338 338 338
344 346 362 359 348 345 345 346 344 340 340 340 340 342 345 346 348 348 349 350 350 351 350 351 351 352 353 354 356 355 352 351 351 352 352 351 348 346 345 344 343 343 343 343 343 345 347 347 347 347 347 347 345 345 344 344 344 344 342 342 342 341 340 340 340 339 338 338 338 339 339 339 338 338 338 339 338 338 337 336 334 334 335 336 336 336 337 338 338 339 339 338 338 338 337 337 338
343 351 373 356 344 356 352 348 350 350 345 339 338 340 344 345 347 348 348 349 349 350 350 351 351 351 352 353 355 355 353 353 353 353 353 352 348 346 345 343 342 343 344 343 343 345 346 347 348 347 347 346 345 345 345 345 344 343 342 341 341 340 340 339 338 337 337 337 338 338 338 337 337 337 336 336 335 335 334 333 333 335 337 337 337 338 339 339 338 339 339 338 338 339 338 338 338
343 346 365 352 345 356 349 346 353 352 345 340 339 339 342 343 346 348 348 349 348 349 349 350 350 351 351 353 355 354 354 354 354 354 354 353 348 344 343 342 343 342 342 343 343 344 346 347 348 347 346 346 345 346 346 345 345 343 341 341 340 340 340 340 339 338 338 338 338 337 337 337 337 336 336 336 335 335 334 334 335 337 339 339 338 339 339 339 339 338 338 339 339 339 339 339 339
340 339 359 358 345 345 345 347 350 347 343 342 341 340 342 344 346 348 348 347 348 349 348 349 348 349 351 352 354 353 354 354 355 354 355 354 348 344 343 342 343 343 342 343 343 344 345 346 347 347 346 346 346 346 346 345 345 342 341 341 341 341 340 340 340 340 339 339 339 339 339 339 339 338 338 337 337 337 337 337 338 339 340 339 339 338 338 338 339 339 339 339 339 340 340 340 341
341 339 357 360 344 340 342 345 347 344 344 343 341 341 342 342 346 347 347 347 348 348 348 349 347 348 350 351 353 352 353 355 355 355 356 355 349 344 343 343 344 343 343 343 343 343 343 344 345 346 345 345 345 345 344 343 342 341 341 340 340 341 340 340 339 339 339 339 339 340 340 339 339 339 339 338 338 339 338 338 339 339 340 340 340 339 339 339 339 340 340 340 341 341 342 341 342
340 342 352 351 344 341 341 349 352 346 343 342 340 341 342 342 344 345 345 346 347 348 348 348 347 348 349 350 351 352 354 355 355 355 356 355 351 345 344 345 344 344 344 343 343 343 343 343 343 344 343 343 344 343 342 342 341 341 341 340 339 339 339 338 338 338 338 338 338 338 338 339 339 341 342 340 341 340 341 341 340 340 341 340 341 341 341 342 342 341 340 341 341 342 343 342 342
340 347 349 343 344 344 342 350 355 348 343 341 340 342 342 342 344 346 346 346 347 348 348 348 348 350 350 350 350 351 353 354 354 354 355 355 353 348 345 344 345 345 345 345 344 343 343 343 343 343 343 343 342 342 341 341 340 341 340 340 339 338 337 337 337 338 338 337 338 338 338 340 341 342 343 342 342 341 341 342 342 341 341 341 342 343 344 344 343 341 340 340 341 342 340 340 341
341 345 347 344 344 343 341 344 345 344 343 341 341 342 344 343 344 346 346 346 347 347 349 350 350 351 351 351 351 352 352 353 354 354 354 354 354 352 348 346 345 345 345 345 344 343 343 342 342 342 342 342 341 341 340 340 340 340 340 339 339 338 337 336 337 338 339 339 339 340 340 340 341 341 342 341 340 340 341 341 342 342 343 345 345 345 345 345 343 341 340 340 340 339 336 336 338
339 343 349 346 341 340 340 343 342 343 343 341 341 342 343 343 343 345 347 348 348 348 350 351 352 352 352 352 352 352 352 353 354 354 354 354 354 353 350 347 346 346 345 344 344 343 342 342 342 341 341 341 341 340 340 340 340 340 340 340 340 339 338 338 338 339 341 342 342 342 341 340 340 340 340 340 339 340 341 341 342 344 345 346 345 344 344 344 342 341 340 340 339 337 335 334 335
338 341 348 343 339 341 341 342 343 341 344 343 343 344 344 344 346 347 349 351 349 349 350 351 352 352 353 353 353 352 352 353 354 354 354 354 354 352 351 348 346 347 346 345 344 343 343 344 343 342 342 341 341 340 340 340 340 340 341 341 340 340 340 339 339 341 343 343 343 343 341 341 340 340 340 342 342 342 342 342 343 344 344 344 345 344 344 344 342 342 341 340 339 337 335 334 334
337 336 340 338 339 341 341 341 342 343 343 344 344 345 346 346 348 349 350 351 350 349 350 351 351 352 352 352 353 353 353 353 354 353 354 354 353 352 351 348 347 348 348 347 346 345 346 345 344 344 343 343 343 342 343 342 341 342 342 343 342 342 342 342 342 343 344 343 343 343 342 342 341 342 342 343 344 344 344 344 344 345 345 345 345 345 344 344 343 342 342 341 339 337 335 334 333
337 338 336 338 339 340 340 341 342 344 344 344 343 344 345 346 347 349 349 351 350 349 350 350 351 352 352 352 353 353 353 353 353 353 353 353 353 351 351 349 349 351 350 349 347 347 347 346 346 345 345 345 345 345 345 344 343 343 344 344 344 344 344 344 345 345 345 344 343 343 342 343 342 342 343 344 345 345 345 344 345 345 345 345 345 346 346 344 343 342 342 341 340 339 337 336 333
337 339 338 339 340 340 341 341 342 343 343 343 344 343 344 345 347 347 348 350 350 350 350 350 351 351 352 353 353 353 353 353 353 353 353 353 353 352 352 351 351 352 352 351 350 349 347 348 347 346 346 345 346 347 347 346 344 344 346 347 346 346 346 345 345 345 345 344 343 343 343 344 343 343 344 344 345 345 344 344 344 344 344 344 345 345 344 343 342 343 343 341 340 338 337 335 334
336 339 339 339 340 341 341 342 343 344 344 344 345 344 344 346 347 347 349 351 350 350 350 350 351 351 351 353 354 354 353 353 353 353 353 353 352 353 353 352 352 352 351 351 351 351 349 348 348 347 345 345 348 348 347 348 347 346 348 348 347 347 346 346 345 344 344 344 343 344 344 345 344 344 344 344 344 343 342 343 344 344 344 343 343 343 342 340 340 342 343 342 341 338 336 334 332
336 337 339 339 340 341 342 343 345 345 345 345 345 346 346 347 349 349 350 351 349 350 351 351 351 351 352 352 353 352 352 353 353 352 352 352 352 353 353 352 352 352 351 350 350 349 349 348 349 348 346 346 349 349 350 350 348 348 349 348 348 346 345 345 344 344 345 345 344 345 346 346 345 344 342 343 343 342 342 344 344 344 344 342 342 342 341 340 340 341 342 341 343 342 339 337 335
336 337 337 338 340 343 344 345 345 345 345 346 346 347 347 347 349 349 349 351 349 350 350 351 351 351 351 351 351 351 351 352 352 352 351 351 352 352 353 352 351 352 351 351 350 348 348 348 347 348 347 346 347 348 349 350 350 348 348 349 349 347 347 346 345 345 345 345 345 346 347 347 347 344 341 341 341 341 342 344 345 344 343 342 341 340 340 341 342 342 342 341 341 341 340 339 339
336 336 336 337 339 342 343 344 345 345 345 345 346 346 346 347 348 349 349 350 350 349 349 349 350 351 351 351 351 351 350 351 351 351 350 350 351 351 352 351 350 351 352 351 350 350 349 347 347 347 347 346 346 346 347 349 350 349 348 350 350 349 348 347 346 345 345 346 346 347 347 346 346 345 342 341 341 340 341 341 341 341 340 341 341 342 343 344 345 345 345 343 342 342 341 341 340
336 337 337 338 340 342 343 343 344 345 345 346 346 346 346 348 348 349 348 349 349 348 347 348 348 349 349 350 351 351 349 349 350 350 350 350 350 350 349 349 350 351 351 351 350 351 350 348 348 348 347 347 346 346 347 348 349 349 350 350 351 350 349 349 348 347 347 347 347 348 348 346 346 346 346 345 343 341 340 341 342 342 342 342 344 344 345 345 346 347 346 345 345 344 343 343 342
337 336 336 338 340 341 342 342 343 344 344 345 345 345 346 348 347 347 349 348 348 347 347 346 346 347 347 348 349 349 348 348 350 348 349 350 349 349 348 348 349 348 349 350 351 350 349 348 348 348 349 348 347 346 346 347 349 350 350 350 351 350 350 350 349 348 348 348 348 348 348 348 348 348 348 347 347 347 346 345 344 344 343 343 344 345 345 345 346 346 346 346 346 346 345 345 343
337 335 336 340 335 335 341 341 342 343 343 344 344 343 345 347 346 347 349 348 348 347 346 345 345 346 347 347 347 346 348 349 348 347 347 349 347 347 348 348 348 347 348 349 349 349 348 349 349 348 349 349 349 347 346 348 350 350 350 350 350 350 350 349 349 348 348 348 348 348 349 349 349 349 349 348 349 349 347 345 343 342 342 343 343 344 344 344 345 346 346 347 347 347 346 345 343
338 333 331 338 334 334 341 340 341 342 341 343 344 343 345 346 346 346 348 348 349 348 347 346 346 347 347 346 345 346 348 347 347 347 347 347 346 347 348 347 348 348 348 348 347 347 347 348 348 348 349 349 348 347 347 350 351 350 349 349 350 350 350 349 349 348 348 348 348 349 349 349 349 348 348 348 348 347 345 343 341 340 339 338 338 337 337 338 341 343 346 346 347 347 348 346 344
337 337 330 333 334 334 339 339 341 341 341 343 344 344 345 346 345 345 348 347 348 348 347 348 348 347 347 346 345 346 349 348 347 348 348 347 347 347 348 347 348 349 349 349 348 347 347 347 348 349 348 348 348 347 348 349 349 349 349 349 349 350 350 349 348 348 348 349 349 350 350 350 349 348 348 348 347 344 341 339 337 334 334 334 334 334 334 334 336 340 344 345 346 346 347 346 344
333 338 334 333 334 334 335 338 340 341 341 342 343 345 346 346 344 343 345 346 346 348 346 349 349 347 348 347 346 348 349 349 348 349 349 348 348 348 349 349 349 349 349 348 347 347 347 347 348 348 349 349 349 348 348 348 348 348 348 349 350 350 349 348 347 347 347 348 349 349 349 349 348 348 348 347 343 337 334 333 331 331 331 333 334 335 336 335 335 337 339 342 344 344 344 344 343
330 333 333 331 334 335 336 337 339 340 341 343 344 345 346 346 344 344 345 345 346 346 346 349 351 349 349 347 347 349 348 348 349 350 350 349 349 349 349 349 349 349 349 347 348 348 348 348 348 348 349 349 349 349 349 348 348 348 348 349 349 348 347 346 346 346 346 346 347 346 346 346 345 345 344 340 335 331 329 328 328 330 332 333 335 336 337 338 338 337 338 339 341 342 342 342 341
334 335 335 332 331 334 338 339 338 338 341 343 345 345 345 345 345 344 345 346 345 346 347 349 350 349 350 347 347 351 349 349 350 348 349 349 348 348 347 349 350 349 348 348 349 349 349 349 349 349 349 350 350 350 350 349 349 348 347 348 348 347 346 346 346 346 346 345 344 344 342 341 340 339 337 335 333 331 331 331 331 331 330 331 333 334 335 337 338 338 338 339 339 340 341 341 342
335 337 336 335 332 333 338 340 338 338 339 342 346 345 345 346 345 344 344 346 346 345 345 348 349 349 350 346 346 351 350 348 349 349 349 349 348 347 348 349 348 348 347 348 349 349 350 349 349 350 350 351 351 349 348 348 347 347 347 347 346 346 346 347 345 344 344 343 342 340 339 337 336 336 335 337 337 334 333 333 333 329 327 329 332 334 334 335 336 336 338 338 339 339 339 340 343
334 337 334 333 332 333 338 339 337 338 338 340 345 345 345 346 344 344 345 345 345 346 345 346 348 349 348 346 346 349 349 348 349 349 349 349 348 347 348 348 348 348 348 349 350 350 351 351 350 350 350 349 348 347 347 346 345 345 345 346 345 346 347 345 342 341 342 341 340 338 337 336 337 338 338 341 342 340 336 334 332 326 325 330 335 336 336 335 335 336 337 338 339 339 339 340 342
333 336 333 331 333 334 337 340 338 337 339 341 344 344 345 346 345 343 345 345 344 345 345 347 348 349 347 347 348 349 348 349 350 350 350 349 349 349 349 349 350 350 350 351 352 353 352 351 349 349 349 348 346 345 346 345 344 344 345 347 347 348 348 344 341 341 340 337 337 337 337 336 337 339 341 343 343 341 339 338 335 328 327 331 334 336 336 336 337 337 338 338 339 340 340 340 341
330 335 332 329 334 334 332 338 340 339 339 341 344 344 344 345 346 345 344 344 345 345 346 346 348 348 348 348 349 349 348 350 352 352 351 351 351 352 352 352 352 352 352 352 352 352 350 349 348 347 347 346 345 345 344 344 345 346 346 347 347 347 346 342 340 339 337 336 337 337 337 337 338 340 342 343 342 342 341 340 335 330 330 332 333 335 335 336 337 337 337 338 339 339 339 339 340
329 334 332 330 333 335 334 338 341 339 339 342 343 340 342 345 345 347 345 343 344 344 346 346 347 348 347 348 349 350 349 350 352 353 353 354 353 354 354 354 354 354 353 352 351 350 348 347 346 346 346 345 345 344 344 345 345 344 344 344 346 346 342 338 338 337 336 336 335 335 335 336 337 338 339 339 340 338 336 334 332 332 333 334 334 334 333 334 334 335 335 336 337 338 337 337 338
326 332 336 334 335 336 338 340 339 335 333 339 341 335 338 345 345 346 346 344 343 344 345 346 347 347 348 349 349 350 350 349 351 353 353 354 354 354 355 355 354 354 352 351 350 348 347 346 346 346 345 344 344 344 342 342 342 339 338 339 342 341 335 330 334 335 334 333 333 334 333 332 333 334 332 330 330 330 330 330 332 334 333 332 330 328 328 330 331 333 334 335 336 336 335 335 337
322 332 337 334 335 338 337 338 336 331 330 337 341 337 337 340 342 346 344 343 344 344 344 345 347 348 348 350 351 350 351 351 350 352 353 354 355 355 355 354 354 354 352 350 348 347 346 345 345 344 343 343 343 341 338 336 335 335 335 337 337 333 327 327 331 332 331 330 331 330 328 328 329 329 326 324 326 332 334 331 330 332 330 327 325 324 325 328 328 330 331 331 332 331 332 335 335
324 336 338 333 335 338 337 336 334 332 335 338 339 341 338 334 338 345 345 343 345 345 345 345 345 347 348 350 350 351 351 351 352 352 354 353 353 352 353 353 352 352 350 349 349 347 345 344 343 343 341 340 337 335 333 332 331 332 331 332 331 326 324 327 329 328 328 327 325 325 327 331 332 328 324 324 331 337 337 332 329 330 330 326 323 324 325 326 327 327 329 329 329 329 331 333 333
330 335 333 332 333 337 340 336 333 336 337 334 337 340 338 337 346 351 348 344 343 345 345 345 345 346 348 350 350 352 352 352 352 352 353 353 351 350 351 351 351 352 350 348 347 345 344 342 341 340 337 333 332 330 329 330 331 330 327 326 324 323 324 326 325 324 326 325 326 329 333 333 330 327 325 326 332 337 336 335 333 333 332 328 324 325 326 327 328 328 329 329 329 329 330 331 331
331 331 332 331 330 334 337 336 334 333 333 331 333 335 335 340 350 351 347 344 342 344 344 343 345 345 347 349 350 352 353 352 352 352 351 351 350 348 347 349 352 352 350 347 345 344 343 340 339 337 332 328 329 328 327 328 328 326 324 322 322 322 322 321 320 321 322 322 326 330 330 329 326 328 331 330 331 335 337 336 335 334 332 327 325 326 327 328 330 330 330 329 328 328 329 330 330
329 331 330 326 334 340 339 342 340 329 329 332 331 332 332 335 343 346 345 346 343 343 344 343 344 344 345 348 349 351 352 352 352 352 351 350 350 349 347 348 352 353 351 347 344 343 341 339 336 333 330 327 326 326 326 326 325 322 320 319 319 319 318 317 316 317 318 317 321 324 325 326 327 329 332 330 329 335 336 334 333 331 328 326 327 328 328 329 331 330 329 328 327 328 329 330 330
329 331 328 326 336 340 331 332 332 325 326 331 332 332 328 328 339 347 345 344 344 343 344 344 344 344 345 346 348 350 351 352 352 352 352 351 351 352 349 347 349 351 349 346 344 341 340 337 334 332 330 328 327 325 324 323 322 321 319 318 317 316 315 316 315 314 315 316 317 319 321 324 326 327 327 326 329 335 334 332 331 328 326 326 327 328 329 330 330 330 328 327 327 327 328 329 329
328 330 329 325 328 326 321 325 327 326 330 333 331 329 325 328 340 347 345 344 344 342 342 343 343 343 344 345 347 349 351 352 353 352 353 353 352 352 349 345 346 347 345 344 344 340 338 335 333 332 330 328 325 323 322 321 322 320 319 317 316 315 315 315 315 315 316 316 317 319 320 321 322 323 323 324 328 332 332 331 329 327 326 326 326 327 328 329 329 328 327 328 327 327 327 328 328
328 328 326 327 328 320 320 328 326 324 329 331 329 327 325 329 338 344 345 343 342 341 340 341 342 344 343 344 347 349 351 351 352 352 352 353 352 350 347 345 346 346 344 344 345 340 336 335 334 332 331 329 326 324 322 321 321 320 318 317 315 316 315 315 316 316 316 317 317 318 318 319 318 319 321 323 325 327 328 327 326 326 326 326 326 325 326 326 326 326 326 328 328 326 326 326 327
329 333 330 330 333 326 322 328 326 323 327 327 326 327 327 329 337 346 344 341 342 341 341 342 341 344 344 343 346 348 350 350 351 352 352 352 351 349 347 347 346 346 344 343 344 342 337 334 334 332 332 331 326 323 322 322 321 320 318 317 316 316 316 315 315 316 316 317 317 318 318 318 317 318 322 324 325 326 327 327 326 326 325 324 324 324 324 325 325 325 326 327 326 326 325 326 327
326 333 332 326 334 335 327 330 336 332 328 328 327 332 341 341 344 349 341 339 345 339 340 342 341 344 343 342 346 347 349 350 350 351 351 351 350 350 348 347 347 347 346 344 342 343 339 335 333 333 332 332 326 322 322 322 321 320 319 317 317 316 316 316 316 316 316 317 318 319 319 318 318 320 324 325 326 327 327 327 326 325 324 323 323 323 323 323 324 324 325 325 325 325 325 325 326
330 327 327 328 334 337 329 328 336 329 324 331 333 331 340 340 342 352 347 344 348 343 341 341 339 342 343 341 345 347 349 350 350 350 350 351 351 349 348 347 347 347 348 346 342 339 338 336 335 334 335 334 328 322 322 323 321 320 319 318 318 317 316 316 316 316 316 317 318 319 319 318 319 322 324 325 325 325 325 326 326 324 324 323 323 323 323 323 323 323 324 326 326 325 325 325 326
332 323 326 332 330 336 338 330 328 326 325 333 333 326 329 330 337 354 354 348 348 345 343 340 339 342 342 342 344 346 349 349 348 349 348 350 350 348 348 347 347 347 347 346 342 337 337 337 337 336 337 338 333 325 322 322 322 320 319 319 319 318 316 316 317 316 317 317 318 318 318 319 320 323 324 325 323 321 323 324 323 323 323 322 322 323 322 322 322 323 325 327 327 326 326 326 326
331 327 331 332 322 325 332 326 323 325 325 329 332 331 330 332 341 350 349 348 348 345 345 343 340 341 342 343 343 344 348 347 347 349 348 349 349 348 348 347 347 347 347 347 344 340 340 339 340 339 339 340 336 327 322 322 321 320 319 320 320 318 317 316 316 317 317 317 318 318 319 321 323 325 327 326 324 323 325 326 324 323 322 322 322 322 322 322 322 324 325 327 328 328 327 326 327
330 330 329 330 329 327 326 326 327 326 326 329 330 330 333 344 358 355 347 348 347 343 345 344 340 341 342 343 343 344 346 347 348 348 347 348 348 347 348 347 348 347 347 348 346 344 343 343 344 344 343 343 339 328 322 323 321 320 319 319 320 318 317 317 317 317 317 318 319 319 320 323 326 327 327 327 326 327 329 329 327 326 326 326 326 326 325 325 324 324 326 327 328 328 328 327 327
326 326 325 325 329 328 325 329 330 327 330 333 329 328 342 361 364 354 346 343 343 342 345 345 341 341 342 342 343 344 345 346 346 347 347 348 347 347 347 346 347 347 348 348 348 346 346 346 347 348 346 347 343 330 323 323 321 320 320 320 320 318 317 317 317 317 318 318 318 318 321 325 327 329 328 328 328 329 329 329 329 328 328 328 328 328 328 328 327 327 327 327 327 329 329 328 328
328 327 327 325 326 328 326 325 327 327 330 333 329 327 342 360 353 346 345 343 343 343 342 342 342 340 341 343 344 344 345 345 345 346 346 346 346 346 346 347 347 349 349 349 349 349 349 350 349 350 349 349 346 334 323 323 322 320 321 321 320 319 317 317 317 317 317 317 318 317 320 325 327 328 329 329 329 329 329 330 330 329 329 328 329 329 329 329 329 329 328 328 327 329 330 330 329
Wind_Speed
12 10 8 8 11 10 7 6 2 2 2 3 2 3 4 7 8 9 7 6 5 3 11 14 12 16 14 11 15 16 13 3 1 2 7 14 20 20 21 24 24 25 24 24 24 26 26 26 26 27 28 28 27 27 29 30 30 29 28 27 28 27 26 25 24 23 22 22 21 20 19 18 18 18 18 18 18 17 16 16 15 14 13 12 11 10 9 9 8 8 8 7 7 7 7 6 5
11 11 9 7 9 8 5 6 2 2 3 5 3 3 5 7 9 9 8 8 8 12 23 24 22 21 19 20 20 16 13 9 9 18 21 24 24 21 23 24 24 26 25 25 25 26 27 27 27 26 28 28 27 27 28 29 29 28 27 27 26 26 25 24 23 22 21 20 19 18 18 17 17 17 17 17 17 16 15 15 14 13 12 11 10 10 9 9 8 8 7 7 6 6 6 6 5
12 12 11 9 9 6 2 3 2 3 4 4 3 3 6 8 10 12 13 16 18 20 25 25 21 17 19 16 12 11 8 15 27 31 29 27 26 25 25 24 24 25 26 26 26 27 27 27 28 27 27 27 27 27 28 28 28 27 26 26 26 25 24 23 22 21 20 20 19 18 18 17 17 17 17 17 16 16 15 14 13 12 11 10 10 10 9 9 8 8 7 6 6 5 5 5 4
10 11 10 10 7 3 1 2 2 3 4 3 3 4 7 10 14 16 19 23 23 24 22 20 14 13 23 18 12 14 11 20 30 31 30 27 27 27 26 25 25 25 27 26 26 27 27 27 27 28 27 27 26 26 27 27 27 27 26 26 25 24 23 22 21 21 20 20 20 19 19 18 17 17 17 16 16 15 14 13 13 12 11 11 11 10 9 8 7 7 6 5 4 4 4 4 4
10 9 8 8 4 0 2 2 2 4 3 3 3 5 9 11 13 13 18 23 23 23 20 18 14 16 25 16 9 12 15 23 27 30 31 28 28 28 26 26 25 26 26 26 27 27 27 27 27 27 27 27 27 27 26 26 26 26 25 25 24 23 22 21 21 20 20 19 19 18 18 17 17 16 16 16 15 15 14 13 13 12 12 11 11 10 8 7 6 5 4 4 4 3 4 4 4
8 7 6 6 2 1 1 2 4 5 4 5 4 6 11 13 15 17 21 24 25 25 23 23 20 18 18 13 15 18 23 27 27 30 31 30 29 28 27 26 26 25 25 26 27 28 28 27 27 26 26 26 27 26 25 25 24 24 24 23 22 21 20 20 19 18 18 18 17 17 17 16 16 16 15 15 15 14 14 13 13 12 12 11 10 8 7 5 4 4 3 3 3 4 4 4 4
6 7 9 6 3 0 2 3 4 3 3 6 8 9 12 14 20 22 20 22 23 24 26 26 25 21 13 13 18 16 21 27 30 31 31 32 30 28 27 26 26 26 25 25 25 27 27 26 26 25 24 25 25 25 24 23 23 22 22 21 20 19 19 18 17 17 17 16 16 16 15 15 15 15 15 14 14 14 13 13 12 12 11 9 8 6 4 3 3 3 3 3 3 3 4 4 4
4 5 7 3 1 2 3 4 4 3 3 6 11 12 14 18 22 18 13 16 14 16 22 22 26 22 9 13 13 11 21 27 30 30 31 31 30 29 28 27 27 27 26 25 24 25 26 25 25 24 23 23 24 24 22 22 21 21 20 20 19 18 17 17 17 16 16 16 16 15 15 14 14 13 13 13 13 12 12 12 11 10 9 7 6 4 3 2 2 2 2 2 2 3 3 4 4
2 3 2 2 3 3 3 4 4 4 4 7 8 12 18 21 23 19 14 15 14 18 20 18 26 23 11 17 16 16 22 25 29 29 29 29 28 28 28 28 27 27 27 25 25 24 24 24 24 23 23 23 23 22 21 21 20 20 19 19 18 17 17 17 17 16 16 16 16 15 15 14 13 12 12 12 12 12 11 11 10 9 8 6 5 4 3 2 1 1 2 2 3 3 3 4 4
1 2 1 2 3 4 4 2 3 4 5 8 10 16 21 23 25 22 17 15 18 19 17 19 28 26 18 18 16 18 24 27 29 27 26 27 27 27 27 26 25 26 26 26 24 24 24 22 23 23 22 22 21 21 20 20 20 19 19 18 18 17 17 17 17 16 16 16 15 15 14 14 13 13 12 12 12 11 11 10 9 8 7 6 5 4 2 1 1 2 3 4 4 4 4 4 4
1 2 1 3 4 4 2 1 3 6 8 10 14 21 26 28 26 22 21 18 22 24 22 23 25 26 21 16 16 21 28 27 26 27 26 26 26 26 26 25 23 23 24 24 24 23 23 22 22 22 21 20 20 20 20 20 19 19 18 17 17 17 16 16 16 16 16 15 15 15 14 14 13 13 12 12 11 11 10 9 8 7 5 4 3 1 1 1 2 3 4 4 4 5 5 5 4
2 1 2 4 3 2 3 2 3 5 10 9 10 20 29 32 24 19 21 19 23 23 18 17 19 25 18 10 18 25 28 25 25 26 26 25 26 26 25 24 22 22 23 23 24 23 23 22 21 21 21 20 20 20 19 19 18 18 17 16 16 15 15 16 16 16 16 15 15 14 13 13 12 12 11 11 10 10 9 7 6 4 3 2 1 0 1 1 2 3 4 5 5 5 5 6 5
4 1 4 3 2 3 3 2 2 1 5 6 9 19 29 28 22 21 23 22 21 16 14 21 25 24 15 12 22 29 29 26 25 25 26 26 25 25 24 23 22 21 23 23 24 24 23 23 21 21 21 20 20 19 18 18 18 17 16 15 14 14 14 15 15 15 15 14 14 13 12 11 11 10 9 9 8 7 6 5 4 2 2 1 1 1 1 2 4 5 6 6 6 7 6 6 6
4 4 5 2 1 3 3 2 1 3 3 5 12 19 23 22 25 28 26 18 15 20 23 28 30 21 17 18 21 29 30 27 26 25 25 23 24 26 25 23 22 21 22 22 23 23 23 22 22 21 21 21 20 19 17 17 17 17 16 14 14 13 14 14 14 13 13 12 12 11 10 10 9 8 8 7 6 6 5 4 3 3 2 2 2 2 2 3 5 5 6 7 7 7 7 6 6
7 6 5 2 2 2 1 3 3 5 3 3 13 21 19 22 29 28 26 17 16 30 29 26 26 18 17 18 19 31 31 29 27 25 25 22 22 25 25 23 21 21 21 21 21 22 22 22 22 22 21 21 20 19 18 17 16 16 15 14 13 13 13 12 12 12 11 10 10 9 9 8 7 6 6 5 4 4 4 4 3 3 3 3 3 3 3 4 5 6 7 7 8 8 7 7 7
8 5 5 3 3 1 1 2 4 5 2 3 20 28 18 19 27 24 25 25 24 29 27 23 16 14 23 22 26 34 31 30 28 27 26 21 22 24 24 23 21 21 20 20 20 21 21 21 21 21 20 20 19 19 18 18 17 16 14 13 12 12 12 11 10 10 10 9 9 8 8 7 6 5 4 4 3 3 3 3 4 4 4 3 3 4 4 5 5 5 6 7 7 8 7 7 7
6 3 3 2 3 4 4 3 4 3 3 7 22 27 15 13 20 22 27 32 30 24 23 22 14 20 29 24 29 35 32 32 30 29 27 23 24 25 24 22 22 21 20 20 19 19 20 19 19 19 19 19 18 18 18 18 17 16 14 13 12 11 11 10 9 9 8 8 7 7 6 6 6 5 5 4 3 3 3 3 4 4 4 4 4 4 5 6 5 5 6 6 7 7 8 7 6
6 4 2 2 3 5 5 5 6 4 5 10 18 23 17 11 16 24 26 26 28 22 20 23 20 24 29 28 32 35 35 34 32 32 29 27 25 25 25 23 22 22 21 20 19 19 19 19 18 18 19 18 18 17 17 17 16 16 14 13 12 11 10 9 8 8 7 7 6 5 5 4 5 5 4 4 4 4 4 3 4 4 5 5 5 5 5 5 5 6 7 7 6 7 7 7 6
8 4 3 4 4 5 10 11 8 7 10 12 17 23 21 17 22 25 19 18 24 20 19 26 27 29 31 33 33 34 37 34 33 33 29 29 26 25 26 24 23 22 22 21 20 20 19 19 18 18 18 18 17 17 16 16 15 15 14 13 12 11 10 8 8 7 7 6 5 5 5 4 4 4 3 3 4 4 4 4 4 5 6 6 6 5 5 5 5 6 8 8 7 6 7 8 7
9 6 4 6 5 6 13 16 11 12 15 13 14 18 19 19 23 23 18 19 21 19 21 26 28 32 35 34 34 36 37 34 33 31 29 28 25 25 25 25 24 23 22 21 20 20 19 19 18 17 17 17 17 16 16 15 15 14 13 12 11 10 9 9 8 7 7 6 5 5 4 4 4 4 3 3 4 4 3 3 4 6 6 7 6 6 5 5 5 6 7 7 7 7 7 7 7
7 8 5 6 8 7 12 21 17 15 19 18 15 15 13 16 24 27 25 17 11 20 31 35 35 37 38 36 36 36 35 34 32 30 29 27 25 24 23 24 23 22 21 20 20 19 19 18 17 17 16 16 16 16 15 14 14 13 13 12 10 9 9 8 7 7 6 5 5 4 4 4 4 4 3 3 2 3 2 3 4 5 6 6 6 5 4 5 6 6 7 7 7 7 6 6 6
4 6 12 13 13 9 14 24 21 18 23 20 16 13 12 19 26 30 29 16 10 23 35 41 44 43 41 39 36 34 34 32 31 29 28 26 25 24 23 23 22 22 21 20 20 19 18 18 17 17 16 16 16 15 14 13 13 12 12 11 10 9 8 8 7 6 6 5 5 5 4 3 4 4 4 3 2 2 2 3 3 4 5 6 6 5 5 5 7 7 7 7 7 7 7 6 6
3 4 15 19 18 13 16 22 21 25 24 16 13 13 15 21 19 23 27 21 22 30 35 40 43 43 41 39 37 35 33 31 30 29 27 26 24 23 23 22 21 21 21 21 20 18 18 18 17 17 16 16 15 14 14 13 12 11 11 11 9 8 7 7 6 6 6 5 5 5 4 3 3 4 5 4 4 3 3 3 3 4 5 5 6 6 6 7 8 8 7 7 7 7 7 7 7
7 7 10 19 23 17 21 25 26 28 23 18 18 16 15 15 11 15 21 24 29 33 35 39 39 39 38 36 37 36 34 32 30 27 25 25 23 21 21 20 20 19 20 20 19 19 19 18 17 17 17 16 15 15 14 13 11 11 11 11 9 8 7 7 6 6 5 4 4 4 4 4 4 4 5 5 5 4 3 3 4 5 5 6 7 7 8 9 9 9 8 7 7 7 8 8 8
6 10 11 18 22 20 26 29 29 27 24 24 21 15 12 14 16 17 23 28 33 35 36 38 38 37 36 35 36 34 33 32 29 27 25 23 21 21 21 20 20 18 18 18 18 18 17 17 17 16 16 16 15 14 13 12 11 12 11 10 9 9 8 6 6 5 5 4 4 4 4 5 5 5 5 5 7 6 4 5 5 6 6 7 8 10 11 11 11 10 9 8 9 9 9 9 9
6 16 15 14 18 24 31 29 29 27 24 27 19 11 14 23 24 16 25 34 33 36 36 36 36 35 34 34 33 32 32 32 30 29 26 24 23 22 22 21 21 20 17 16 17 17 16 16 16 16 15 15 15 14 13 11 11 11 11 10 9 8 7 6 5 5 5 5 5 5 5 5 5 5 5 6 8 7 6 7 7 8 9 10 11 12 13 13 13 12 11 10 11 11 11 11 11
14 23 19 18 21 25 34 30 28 26 23 28 20 10 15 23 20 10 22 35 35 36 34 35 35 33 33 32 32 31 31 32 31 30 28 27 26 24 23 23 22 20 18 17 17 17 16 16 16 16 15 15 14 13 12 10 10 10 9 9 8 6 5 6 6 5 5 5 5 5 5 5 5 5 6 7 9 9 9 9 10 11 12 12 13 14 13 13 13 14 13 12 12 13 13 13 14
21 25 16 17 22 22 30 26 26 24 16 27 25 13 12 14 13 13 25 35 35 36 33 34 33 32 33 32 32 32 32 32 30 30 30 30 29 25 24 24 22 21 20 19 17 16 16 16 16 16 16 16 14 13 12 10 9 9 8 8 8 7 6 7 7 6 6 5 4 4 6 6 5 6 7 8 9 10 11 11 12 13 13 13 13 13 13 13 14 15 15 14 14 13 13 13 14
25 23 11 11 17 16 23 23 25 22 13 27 28 11 7 7 12 21 31 34 34 35 33 32 32 31 33 31 33 33 32 31 30 31 31 30 28 25 23 21 21 22 21 19 17 16 16 17 17 17 17 16 15 14 13 12 10 10 10 10 8 8 8 8 7 7 6 5 5 5 6 7 7 7 8 8 9 10 10 12 13 13 13 13 13 13 13 14 15 15 15 14 14 14 13 12 13
22 14 8 10 11 9 16 20 24 20 18 32 25 5 4 6 15 26 32 33 32 31 29 30 30 29 31 31 31 31 30 31 31 31 30 29 27 23 21 20 21 20 20 20 19 17 16 16 16 16 17 16 15 15 14 13 11 11 11 10 9 9 9 9 8 7 7 8 7 7 8 9 9 9 9 9 10 10 11 12 13 13 13 13 13 13 14 15 16 16 16 16 15 14 14 13 12
11 6 6 7 7 6 13 19 20 14 19 32 19 3 7 7 16 28 32 33 31 27 26 29 28 28 31 31 29 26 28 31 31 29 28 27 25 22 20 21 21 19 19 20 19 17 16 16 17 16 17 16 15 15 14 13 12 11 11 11 10 10 9 9 8 8 9 9 9 9 10 11 11 11 10 11 13 12 12 12 12 12 12 12 13 13 14 14 16 16 16 18 17 15 15 14 12
3 6 5 3 6 7 11 17 20 14 15 24 15 4 7 8 17 28 32 32 30 26 25 27 26 29 32 29 27 26 25 28 29 27 25 24 22 22 22 21 21 20 18 17 16 17 16 17 17 17 17 16 16 15 15 14 13 13 12 12 11 10 9 9 9 9 9 10 11 11 12 12 11 12 12 13 14 13 12 12 11 11 12 13 13 13 14 14 15 15 16 18 17 15 14 14 13
1 4 5 5 7 6 7 10 19 21 15 13 12 6 5 7 17 27 31 32 30 26 25 26 27 31 32 27 28 27 23 26 29 26 24 24 22 22 21 20 20 20 17 14 14 16 16 16 16 16 16 15 15 16 16 15 15 14 13 12 11 10 10 10 10 10 10 11 12 12 13 13 13 14 13 14 13 12 12 12 12 12 12 12 12 12 13 12 13 13 14 15 15 13 13 12 12
0 2 4 6 8 6 6 6 13 22 16 8 10 10 8 9 17 26 30 31 29 25 24 26 29 31 31 28 29 27 24 26 28 26 25 25 24 22 21 19 19 19 16 14 14 15 15 15 15 14 14 13 14 15 15 15 14 14 13 12 11 11 11 11 10 10 9 10 12 13 13 14 14 13 12 11 11 12 13 13 13 13 13 12 11 10 10 10 11 11 12 12 12 11 11 11 12
4 5 5 5 7 8 8 7 11 17 14 10 10 9 9 11 15 22 29 31 28 26 25 27 30 32 31 29 29 28 26 26 24 25 26 25 24 22 22 21 20 19 17 16 15 14 14 13 14 13 12 12 12 13 14 14 14 14 13 13 12 12 11 11 10 9 8 9 11 11 11 11 10 10 9 9 11 13 13 13 12 12 12 12 11 9 8 8 8 9 9 9 9 10 10 11 12
7 7 7 6 7 6 8 9 12 16 13 11 12 11 12 14 14 18 26 30 29 27 25 27 29 31 31 30 30 29 28 27 23 24 26 25 24 22 24 25 22 21 19 18 17 15 15 14 15 14 13 12 11 13 14 14 14 13 13 13 13 12 10 9 8 8 8 9 9 9 8 8 8 8 8 11 13 13 11 10 10 11 12 12 11 10 8 7 7 8 8 8 9 9 10 10 11
6 6 6 7 7 5 8 10 12 14 11 10 14 14 15 17 15 17 26 28 25 25 23 25 29 30 31 31 32 31 29 27 23 25 28 25 24 23 25 27 24 23 22 20 19 17 16 15 16 17 15 14 14 14 13 13 13 12 12 12 11 10 8 8 7 7 8 8 8 8 7 8 8 8 10 12 13 13 11 11 12 14 13 11 10 10 10 9 9 9 9 9 10 10 10 9 10
7 8 7 7 7 7 10 12 13 11 8 8 14 15 15 17 15 18 25 22 20 25 24 26 30 31 32 32 32 33 30 28 25 27 28 25 26 25 26 27 26 25 23 21 20 19 18 18 18 18 17 17 15 13 12 11 11 10 10 9 8 8 8 8 8 7 8 7 7 7 7 8 8 8 10 10 10 12 14 14 15 15 13 11 11 10 10 10 10 10 10 10 11 12 11 10 10
7 7 7 6 5 5 6 8 13 10 5 6 13 14 12 15 16 17 23 21 22 32 32 31 35 33 33 33 33 34 32 29 28 29 29 28 27 26 26 27 25 25 24 22 21 20 20 20 20 19 18 17 15 12 12 11 10 9 8 8 8 9 9 10 9 9 9 9 9 10 10 10 10 9 9 9 10 13 14 13 15 15 13 12 12 11 11 10 9 9 9 10 10 11 10 9 9
5 5 5 5 5 6 5 6 12 8 5 10 13 10 9 11 12 13 22 27 26 33 36 36 40 38 38 38 36 37 36 33 32 32 31 30 29 28 27 27 26 26 25 24 23 22 21 21 20 20 18 17 14 13 13 12 10 10 9 9 10 10 11 11 10 10 10 10 10 10 10 9 9 9 9 10 11 12 12 13 14 14 11 11 11 11 10 9 8 8 8 8 8 8 8 7 7
5 7 7 5 8 12 9 6 8 3 4 12 12 5 4 8 10 10 16 22 22 28 32 32 37 41 40 39 38 40 39 37 36 34 33 32 31 30 29 28 27 27 27 25 24 23 21 21 20 19 18 16 15 14 13 13 12 12 11 11 11 11 12 12 11 10 10 9 9 9 9 8 8 9 10 11 12 13 13 13 12 10 9 8 8 9 9 8 8 8 8 8 7 6 6 6 6
4 7 9 9 11 13 11 8 7 5 2 10 12 6 4 6 10 12 11 12 14 20 25 26 32 35 35 36 38 40 40 39 38 36 36 34 33 31 30 29 28 27 27 25 23 23 22 21 20 19 18 17 17 15 14 13 13 13 12 11 11 12 13 12 11 11 11 11 12 13 13 13 12 12 13 14 14 13 11 10 8 8 7 7 7 7 7 7 7 7 7 7 5 5 5 6 6
5 6 10 11 11 12 12 11 8 5 4 10 13 8 3 4 9 12 11 10 12 16 18 23 30 32 33 36 39 41 41 40 39 37 37 36 34 32 31 30 29 28 26 24 23 23 22 21 20 20 19 18 18 16 15 14 13 12 11 11 11 12 12 11 11 12 12 12 13 14 13 11 11 12 12 12 10 7 6 7 6 6 6 6 6 6 5 5 6 5 5 5 5 5 5 4 5
6 7 9 10 12 15 16 13 10 5 4 5 7 5 5 6 9 9 10 11 12 14 15 19 27 32 34 37 39 41 43 42 41 40 38 37 35 33 33 31 29 28 26 24 24 24 23 22 21 21 20 19 18 16 15 13 12 12 11 11 12 12 11 10 12 13 13 13 12 12 10 9 10 10 8 5 4 3 5 7 6 5 5 6 6 6 5 5 5 4 4 4 4 4 4 4 5
8 8 8 8 10 16 17 14 10 5 6 4 5 3 5 5 5 4 8 10 12 16 18 17 24 32 34 37 40 42 44 44 43 41 39 38 35 34 33 32 29 28 26 26 25 24 23 23 23 22 21 19 18 16 15 13 12 12 11 12 12 11 10 11 13 13 12 12 11 10 10 10 11 10 6 4 4 5 7 7 6 6 7 8 7 6 5 5 4 4 4 5 5 4 4 4 4
9 9 7 5 5 8 13 12 8 5 6 8 9 7 5 3 4 4 6 9 12 15 16 17 25 34 36 38 41 42 43 44 43 41 39 37 35 33 33 32 30 29 28 27 25 25 24 24 25 24 22 19 18 17 15 14 13 12 11 11 10 10 11 12 12 12 11 11 10 11 12 11 10 8 7 6 5 5 6 6 6 7 8 8 6 5 5 5 5 4 5 6 6 5 5 4 4
7 6 7 4 1 4 6 4 4 5 4 7 11 13 8 3 5 6 8 13 17 15 13 15 22 31 36 39 41 42 43 43 44 42 39 37 35 33 32 32 32 31 29 28 27 26 26 26 26 25 23 20 19 18 16 14 14 12 10 9 9 10 11 12 11 11 10 10 10 10 10 9 8 8 9 8 6 6 6 7 6 7 7 6 5 4 4 4 4 5 6 6 7 7 6 5 5
6 2 3 4 4 3 4 3 3 5 5 6 11 15 11 6 5 7 12 17 18 15 15 17 20 29 37 39 40 42 44 44 44 43 42 40 38 36 34 33 33 32 31 30 29 29 29 28 27 26 25 22 20 18 16 15 15 13 11 9 10 11 11 11 11 10 9 9 8 8 7 7 8 9 9 7 7 7 7 8 8 7 6 4 3 3 3 3 3 4 5 6 7 6 6 5 5
6 3 4 3 2 1 1 1 2 4 5 6 11 14 10 7 7 12 18 19 16 15 20 25 27 32 37 38 40 42 44 45 45 45 44 43 41 39 37 35 34 33 33 32 32 32 32 30 29 28 26 24 22 20 18 17 16 14 12 10 10 10 11 11 10 10 9 9 8 7 7 7 7 8 8 8 8 8 8 9 9 7 5 3 2 2 2 2 3 4 4 5 5 6 6 5 4
6 5 5 5 3 2 3 3 2 2 4 6 8 10 6 5 6 12 20 22 23 26 29 34 36 37 39 42 43 43 45 47 46 46 46 45 44 42 39 38 37 35 34 34 33 34 34 33 31 30 28 26 24 23 21 19 17 15 13 11 11 11 11 11 10 9 9 9 8 7 6 6 6 7 7 7 8 8 8 9 8 5 4 4 4 3 3 3 4 3 3 3 4 5 5 5 4
6 5 6 5 5 4 4 3 3 4 4 5 3 5 5 5 6 11 20 26 32 33 29 30 35 40 42 43 42 41 43 45 46 46 47 47 46 43 42 40 39 38 36 35 35 35 35 35 34 32 30 28 27 26 24 21 18 16 14 13 12 11 11 10 9 9 8 8 8 7 6 6 6 6 7 7 7 7 6 6 5 4 5 5 5 5 4 4 4 3 3 3 4 5 5 5 4
5 4 6 4 6 6 2 4 5 4 3 4 3 3 5 5 5 5 11 18 21 22 20 23 30 35 36 36 37 39 41 43 44 46 47 47 46 44 43 42 41 40 38 37 37 37 37 37 36 34 31 29 28 27 26 23 20 17 15 14 13 12 10 10 9 9 8 8 7 6 6 5 5 5 6 6 5 4 4 4 4 5 5 5 5 5 5 5 5 4 4 4 5 5 6 5 5
3 4 5 5 6 8 4 3 2 3 2 4 2 2 4 2 5 6 1 5 8 13 16 22 28 31 32 33 36 38 40 43 46 47 47 47 47 46 45 44 44 43 41 40 39 39 39 39 38 36 33 30 29 28 27 25 23 20 17 16 14 12 10 9 9 8 8 8 7 6 5 4 5 5 5 4 3 3 4 4 5 6 7 7 7 6 6 6 6 6 6 6 6 6 7 6 6
5 5 7 3 2 4 4 2 2 4 1 4 2 3 4 1 3 5 4 7 9 12 15 18 22 28 31 33 37 40 43 46 47 48 48 47 48 48 47 46 45 44 43 43 41 40 39 39 39 38 35 33 31 30 29 27 25 22 19 17 14 12 10 9 8 8 8 8 8 7 5 4 4 3 2 1 1 1 2 4 5 6 7 8 8 8 8 8 8 8 7 7 7 7 8 8 8
6 5 6 4 3 1 1 3 2 2 2 4 4 5 4 4 4 3 3 9 11 12 14 15 17 23 29 33 37 41 43 44 45 45 45 46 48 49 48 48 47 46 45 44 43 41 40 40 39 38 37 34 32 31 30 28 26 23 20 17 13 12 11 10 9 9 8 8 7 6 4 4 4 3 2 1 1 2 1 3 2 3 4 5 6 7 7 9 10 10 9 9 8 9 10 9 9
3 4 3 2 4 5 3 3 5 4 3 3 4 5 4 5 5 5 8 11 12 13 13 13 16 24 30 32 35 39 40 41 43 45 45 46 48 49 50 49 49 48 48 47 46 44 43 42 41 40 38 36 34 33 32 30 28 24 21 18 14 12 12 11 10 9 8 7 6 5 5 5 5 4 3 2 1 1 3 4 3 3 5 6 7 7 8 9 10 10 11 11 11 11 11 11 11
3 3 4 3 1 2 2 1 3 5 4 3 3 4 5 5 5 7 11 12 12 15 14 12 17 26 31 32 35 39 41 43 45 47 47 47 48 50 50 50 50 50 49 49 48 47 46 45 44 42 40 38 37 36 34 32 29 25 22 18 15 13 12 12 11 9 8 7 6 6 7 7 6 4 2 1 1 2 3 4 5 6 7 8 8 9 10 11 11 11 12 12 13 13 13 13 12
7 5 6 6 4 4 3 2 2 3 4 5 5 4 6 6 4 6 9 8 8 12 13 12 18 27 30 33 39 41 43 45 45 46 48 48 49 50 50 50 50 49 50 50 50 49 48 47 46 45 43 40 38 37 36 33 30 26 22 18 15 14 13 13 12 10 9 8 7 7 8 8 6 5 4 4 4 4 4 5 6 8 10 10 10 10 11 12 13 13 14 14 14 14 15 14 14
Wind_Direction
130 140 140 140 157 162 171 168 77 4 81 64 85 96 112 129 134 138 141 137 118 124 139 139 126 120 118 118 122 90 56 40 181 117 133 149 151 146 140 133 132 132 129 129 126 124 125 125 124 122 122 123 122 122 121 124 129 130 130 131 133 136 137 138 140 141 143 142 141 140 140 140 139 141 142 142 142 142 141 140 138 136 133 129 122 118 114 109 103 99 98 96 91 81 75 70 63
159 161 153 151 167 159 173 169 80 4 56 58 64 69 103 121 130 131 131 119 97 97 109 113 107 105 110 113 113 92 46 39 107 116 127 145 147 146 141 136 135 134 132 132 129 127 127 127 127 125 124 124 124 124 123 125 126 126 127 130 132 136 137 139 141 142 142 142 142 143 144 145 143 143 143 145 145 144 143 141 140 138 134 128 122 119 117 112 108 104 102 96 84 73 67 62 57
176 180 168 161 173 174 178 144 78 46 69 74 49 33 80 94 107 109 107 105 107 104 100 102 97 101 108 99 91 92 70 91 115 122 130 145 146 145 143 138 138 136 135 133 130 128 128 129 129 127 125 124 125 125 125 125 124 125 127 130 132 135 137 139 140 140 140 140 140 141 142 142 142 142 142 144 145 146 145 144 142 139 136 130 127 126 125 121 117 112 105 96 84 73 66 62 54
168 182 179 160 154 177 107 84 135 104 90 100 78 76 87 93 102 106 113 112 112 103 99 99 83 97 107 101 96 94 99 112 123 129 135 146 143 142 142 140 140 138 136 133 130 129 129 130 130 129 128 128 127 126 126 126 126 129 131 132 134 135 137 138 139 139 139 138 138 138 139 139 139 139 140 142 144 146 147 147 144 141 138 134 133 132 130 127 121 114 103 91 83 73 68 66 59
162 177 174 157 134 169 122 77 132 105 105 142 121 99 91 96 101 106 114 111 108 102 102 102 84 96 98 99 117 107 121 127 131 132 135 143 140 139 141 141 142 140 136 133 132 130 130 131 131 131 132 133 132 131 131 130 131 133 134 135 136 136 137 137 138 139 139 138 137 137 137 136 137 138 139 141 144 146 147 146 144 142 139 137 136 135 132 126 118 106 89 74 62 60 66 69 63
154 173 170 178 235 281 110 64 88 98 130 135 115 105 99 97 100 99 97 95 96 97 99 96 97 99 81 80 107 119 132 133 135 135 137 142 140 139 140 143 143 139 137 136 136 134 133 133 134 136 136 136 135 135 135 134 134 135 136 136 136 136 137 137 137 138 139 138 140 139 137 136 137 138 140 141 143 145 145 145 143 143 141 140 138 136 130 119 106 86 64 53 46 48 51 50 50
136 166 174 198 246 173 87 89 96 101 114 110 115 116 110 108 107 102 95 93 92 96 99 99 104 98 83 101 102 115 135 135 137 138 138 139 138 138 140 143 142 140 140 139 138 136 135 136 138 139 138 138 138 138 137 136 136 136 136 136 136 136 136 136 136 137 139 140 143 143 141 141 139 139 140 141 143 144 144 144 144 144 142 142 139 135 123 106 85 67 51 41 39 37 27 22 26
146 175 179 177 24 43 76 97 90 99 98 107 124 123 120 118 111 104 97 99 99 100 103 112 110 92 94 117 102 123 137 136 137 138 137 136 136 139 142 143 143 142 142 142 140 138 137 140 141 141 142 142 141 140 139 138 138 137 137 137 136 136 137 137 138 138 139 140 142 144 145 144 143 142 142 143 144 144 145 145 145 146 146 145 143 136 124 111 90 72 55 34 23 20 10 9 13
174 188 183 97 52 38 68 81 76 91 105 108 113 112 113 111 106 103 98 95 103 102 106 126 110 96 108 107 105 134 138 138 136 137 136 135 137 139 142 144 145 144 144 145 144 143 142 144 145 145 145 145 144 143 142 140 140 140 139 139 139 140 140 140 140 140 140 140 141 142 144 145 146 146 146 147 147 147 147 149 150 151 152 154 153 148 145 137 101 60 30 8 354 360 3 6 6
186 189 154 89 70 57 56 29 69 83 94 99 97 104 106 105 103 103 104 103 105 98 104 118 105 107 120 105 111 141 142 140 138 139 137 137 140 141 142 143 145 144 146 149 148 147 147 150 149 148 148 147 147 145 145 145 144 143 143 143 143 143 143 142 141 140 140 140 141 142 144 144 146 147 148 149 149 150 151 153 155 157 159 161 163 159 152 128 42 18 2 352 347 347 349 354 355
270 224 164 82 63 65 85 36 73 85 92 97 101 108 109 109 105 102 104 103 104 104 109 105 101 113 115 104 119 143 145 142 141 141 140 142 145 145 145 145 146 146 148 150 151 150 151 155 154 152 152 151 151 150 150 149 149 148 148 146 144 144 142 143 142 142 141 141 142 143 144 145 146 148 149 151 152 154 155 157 157 159 161 157 160 155 101 58 6 357 351 344 341 338 337 338 339
244 280 70 81 81 102 125 74 46 94 107 110 114 115 116 112 108 113 111 113 116 117 123 112 119 123 109 104 131 148 150 145 145 144 146 148 150 151 149 148 148 149 150 151 154 154 156 158 158 158 156 157 156 155 155 154 155 153 150 147 144 143 142 144 145 145 144 144 145 145 146 146 146 148 150 153 155 157 158 158 153 151 153 142 144 189 337 346 341 342 341 336 333 330 331 330 331
207 134 86 86 154 123 102 78 333 84 105 114 128 124 121 117 118 126 123 130 129 121 127 127 132 124 111 127 142 154 154 152 150 147 151 151 155 156 154 153 151 152 153 155 157 157 158 160 163 163 161 161 160 159 158 157 158 155 151 148 145 145 145 146 146 145 145 145 146 147 146 146 146 147 149 152 154 158 160 162 159 154 166 180 198 242 295 322 332 334 331 328 327 324 323 324 325
192 149 110 81 108 98 103 113 37 65 78 126 134 129 122 122 129 132 132 132 125 127 131 133 133 117 119 134 146 160 158 157 152 148 152 154 158 157 157 157 153 155 155 158 159 158 160 162 165 165 165 164 162 161 160 160 160 158 155 151 149 148 147 147 145 144 144 144 145 146 146 145 146 146 147 151 156 165 172 180 184 188 205 233 266 287 306 319 324 326 324 319 318 317 316 317 318
193 156 107 95 85 48 85 121 139 106 115 165 129 125 120 129 135 134 135 128 124 135 133 137 135 120 143 151 157 166 160 156 153 150 155 157 158 158 160 158 156 158 158 161 161 162 163 164 166 166 168 166 164 163 163 164 162 160 157 154 152 150 149 147 145 145 146 146 147 148 150 149 148 150 151 156 166 180 192 199 205 213 229 254 277 296 309 314 315 317 317 313 314 317 318 321 323
206 164 76 103 136 130 200 154 157 129 188 154 118 121 119 132 137 135 137 131 132 141 139 147 151 138 155 158 157 162 156 154 155 154 158 160 159 161 162 158 160 161 160 164 163 165 164 164 166 166 167 166 166 164 164 164 162 162 159 157 154 153 154 151 149 151 153 154 154 156 159 159 157 161 164 168 179 198 217 227 228 230 238 251 265 284 301 307 308 310 310 311 316 320 324 330 331
209 151 74 114 159 162 179 172 162 155 174 121 118 124 124 136 136 131 135 133 136 146 145 147 149 139 145 150 154 156 154 156 157 155 158 161 162 163 163 162 164 163 164 165 163 163 163 165 166 164 165 166 166 165 165 164 163 164 163 161 158 158 159 158 159 160 166 165 164 166 166 168 168 174 179 179 187 202 218 233 240 244 250 255 264 279 295 305 309 310 312 313 320 323 328 335 335
183 126 120 161 184 177 163 169 179 159 138 120 126 133 133 137 128 125 130 131 133 135 133 132 128 132 138 142 148 154 157 158 158 156 159 163 165 163 165 168 166 166 166 165 165 163 162 165 165 165 165 166 167 166 166 166 165 167 168 168 166 168 168 167 168 170 178 175 172 171 167 177 183 190 195 194 202 215 224 236 252 259 262 262 269 283 295 304 309 312 313 313 317 321 324 329 332
175 123 130 200 205 173 158 164 177 150 135 131 136 139 136 138 132 133 134 128 127 121 119 122 122 130 137 141 146 153 157 159 159 160 162 166 168 166 167 169 168 168 168 166 166 165 166 166 167 168 167 168 169 168 169 170 171 172 173 175 175 176 175 173 175 179 184 180 181 179 172 185 205 213 215 221 226 233 239 249 261 263 267 269 274 285 291 299 306 309 310 307 307 312 318 324 325
187 151 126 210 188 150 157 153 158 152 138 128 131 135 135 140 138 134 130 127 128 128 131 128 128 136 141 145 148 151 156 159 161 163 164 168 170 170 168 168 170 170 168 167 166 168 170 169 170 171 171 172 171 171 173 175 176 177 178 181 182 182 181 181 181 180 184 184 189 194 186 189 215 230 234 245 248 242 250 260 263 269 273 274 277 288 294 301 309 312 311 304 300 304 314 321 321
188 166 160 197 153 136 163 154 160 155 133 126 122 120 116 125 133 130 126 125 132 142 146 146 145 146 146 149 152 154 157 159 162 165 167 170 171 170 170 170 171 169 168 168 169 171 171 173 174 172 174 175 175 176 176 178 180 180 182 184 187 187 185 187 186 181 185 192 201 217 216 209 222 232 239 248 251 239 256 271 269 276 279 280 284 297 308 313 319 321 320 309 300 303 313 319 318
233 172 163 161 141 145 173 161 158 139 122 122 116 113 108 111 127 137 135 135 159 155 153 153 152 153 154 155 157 159 160 162 166 168 171 173 172 171 175 174 172 171 172 173 174 174 174 176 177 175 176 177 179 180 179 183 184 184 185 186 190 189 186 189 190 184 189 203 217 228 226 223 227 233 231 222 215 219 250 270 276 282 283 287 291 307 324 328 327 323 321 315 308 309 312 317 318
222 164 155 150 147 155 164 150 136 126 120 117 116 125 122 110 124 146 142 145 157 156 154 154 155 157 157 157 160 162 163 166 168 172 176 176 175 175 176 176 175 176 177 177 177 178 178 179 179 178 179 179 179 181 183 185 186 188 187 187 190 189 190 191 191 191 197 208 220 232 230 234 239 241 236 223 213 211 233 267 287 293 291 292 294 310 323 328 329 324 320 318 317 316 314 316 319
159 147 146 149 154 153 144 136 127 127 123 122 128 129 126 116 124 142 141 145 150 152 153 153 155 156 156 158 161 164 166 168 170 175 178 178 178 177 178 179 178 180 180 181 180 180 182 181 181 182 181 181 181 182 185 183 185 190 189 189 189 191 196 191 191 200 209 222 233 243 247 254 252 250 251 239 232 230 242 267 284 292 295 300 300 310 315 322 328 327 324 322 322 321 316 315 316
148 142 152 154 152 138 128 128 124 123 120 125 127 120 117 114 113 122 133 141 146 149 150 151 153 155 157 159 162 167 169 170 174 175 178 181 180 176 179 182 181 185 186 184 184 184 184 180 183 185 184 184 185 186 184 182 186 190 193 192 190 195 199 194 195 207 222 240 252 259 263 270 265 263 264 250 250 258 262 268 279 287 297 304 307 312 314 316 320 320 321 320 319 319 317 314 314
164 148 156 146 133 122 119 121 121 121 123 125 119 107 109 109 108 111 132 141 148 149 149 151 153 156 161 164 168 171 170 172 177 178 180 181 180 178 180 184 185 189 191 191 191 190 186 183 186 188 187 188 188 187 185 186 189 192 195 193 196 201 202 207 214 222 230 237 244 252 261 268 266 266 265 256 258 268 270 273 279 287 294 300 305 307 307 309 312 311 308 306 303 305 307 308 310
157 140 142 134 127 121 119 122 125 124 126 128 122 120 118 114 114 115 139 144 149 149 150 154 156 160 165 169 174 174 171 175 179 180 182 182 182 180 179 186 191 192 195 195 194 191 190 189 189 190 192 194 195 193 192 194 195 199 200 196 205 215 220 232 239 241 238 240 243 250 263 266 264 266 270 267 268 274 276 277 280 286 291 295 298 298 301 305 304 301 297 295 294 294 296 299 302
145 129 126 127 126 121 122 126 129 127 131 133 126 123 119 112 119 137 147 148 151 151 153 158 162 166 169 173 178 176 174 177 180 180 183 183 183 182 181 188 191 193 198 198 195 191 193 193 191 193 194 198 202 200 200 201 202 208 210 207 217 227 232 241 250 253 245 237 239 255 267 264 263 271 277 275 274 278 279 280 281 284 289 290 290 292 298 297 292 292 294 298 301 298 297 299 298
135 127 118 115 117 122 131 132 136 134 139 136 124 110 115 113 134 144 148 150 152 152 156 162 166 171 173 178 182 179 178 181 181 181 185 185 184 186 186 190 192 194 199 200 198 196 200 198 193 193 194 200 202 201 204 205 205 210 213 216 224 228 231 240 250 255 247 230 229 248 263 266 273 278 282 282 282 286 287 288 288 290 292 290 290 294 295 292 289 290 292 297 302 302 304 305 300
134 128 117 117 116 130 142 138 139 136 143 141 127 112 161 142 148 148 150 151 151 153 160 166 169 173 176 180 183 181 181 184 184 182 186 187 187 190 191 193 194 197 200 200 202 205 207 202 197 196 195 201 201 201 205 204 206 211 215 220 222 224 228 236 243 246 239 231 236 249 261 266 273 281 288 296 300 300 296 293 293 292 291 290 292 294 290 290 290 290 290 291 293 299 305 303 298
137 114 105 122 126 154 158 147 140 133 151 147 129 123 171 161 156 152 153 154 154 158 164 168 170 170 171 175 179 180 179 182 184 183 185 188 189 193 194 193 194 196 198 199 204 208 208 205 203 200 198 202 203 203 206 206 211 214 217 219 218 220 226 233 239 238 234 236 246 252 258 263 270 282 292 303 305 299 293 290 290 286 285 288 291 291 289 288 289 289 291 289 285 289 296 296 297
132 117 125 135 132 159 170 156 145 141 159 149 125 121 167 163 165 158 157 159 160 163 167 170 171 170 171 173 178 184 182 180 184 184 184 191 193 194 196 196 195 196 196 198 203 203 202 203 204 204 203 203 203 206 209 209 215 219 218 218 219 223 229 238 243 245 242 244 254 258 263 270 276 282 287 294 294 289 287 288 287 284 284 288 290 291 293 291 291 291 293 292 288 286 287 289 296
64 114 149 158 147 165 179 168 156 148 154 154 132 139 167 166 170 164 160 163 164 165 167 168 170 171 173 175 178 186 188 183 185 186 186 191 193 195 198 199 197 196 199 203 202 198 197 199 202 205 206 206 205 206 211 212 216 220 220 224 229 233 239 248 252 257 256 251 258 264 267 271 274 277 279 281 282 281 283 285 288 290 288 291 293 297 299 296 294 293 293 296 297 294 288 287 293
8 98 147 166 161 163 168 173 166 154 151 163 145 145 167 171 169 165 165 166 166 167 169 168 169 172 175 176 180 185 189 185 185 187 187 189 192 196 201 202 197 197 203 210 207 200 199 202 200 200 204 204 202 205 212 215 217 220 224 230 235 239 247 254 258 263 264 254 255 260 263 267 269 271 272 273 279 285 285 286 289 291 291 296 302 306 306 300 296 293 294 298 299 299 294 290 295
168 154 147 169 162 160 167 166 175 165 149 149 149 149 163 167 166 166 168 168 166 171 172 169 171 174 176 178 181 185 188 187 188 192 191 191 192 198 205 205 199 199 206 211 209 201 204 208 202 200 202 201 200 205 212 216 218 222 226 230 234 241 247 254 261 262 259 255 256 261 261 262 262 263 270 280 291 293 289 285 285 289 294 298 303 307 307 303 300 296 296 296 295 296 295 297 304
178 171 151 162 165 168 177 172 178 168 146 150 158 155 161 167 170 169 170 169 168 173 172 170 174 176 178 182 184 187 190 191 194 196 194 194 194 197 203 203 200 204 208 208 205 201 207 211 206 207 208 207 206 204 209 215 219 223 224 228 235 239 243 248 254 252 251 251 251 255 255 261 271 276 288 297 299 298 297 294 293 298 298 295 297 299 300 297 295 296 294 291 288 290 293 300 307
198 174 157 168 169 182 185 178 186 169 146 163 165 156 164 169 174 173 171 171 171 173 171 170 176 177 179 183 186 190 193 194 196 195 193 193 194 194 198 200 200 203 205 205 203 202 210 214 211 212 212 211 210 207 211 214 217 221 222 227 232 229 229 229 231 236 239 239 244 256 269 283 293 294 298 302 302 301 303 303 300 301 297 295 300 301 301 299 297 300 300 298 298 297 299 306 307
218 187 175 180 175 190 194 181 184 173 138 165 165 155 166 171 174 175 171 171 176 178 173 173 178 180 181 184 188 190 191 191 192 188 188 191 191 192 194 197 198 199 200 202 204 208 213 216 215 215 214 214 213 211 211 210 212 218 220 226 224 218 218 216 218 225 226 230 242 259 269 274 276 282 291 298 298 295 296 297 301 305 303 304 310 310 309 310 309 307 305 306 305 304 307 308 304
231 202 170 187 189 181 212 194 179 172 125 162 167 156 170 179 176 176 176 176 181 182 179 177 179 180 182 185 187 188 186 187 188 185 186 190 190 192 194 197 199 201 203 206 210 215 215 214 214 214 215 215 212 208 208 207 208 213 218 221 219 218 219 218 219 224 231 238 241 247 253 257 257 258 268 275 278 284 290 295 304 310 309 308 311 314 315 315 315 313 311 310 305 304 308 306 305
227 208 178 193 188 169 220 212 178 174 133 159 166 156 173 183 177 182 184 182 182 183 183 181 182 183 185 188 188 186 185 186 188 189 190 192 194 197 200 203 207 209 212 214 213 213 211 208 207 207 209 209 206 205 207 205 204 211 216 217 220 222 219 219 222 226 236 240 238 242 249 254 253 246 245 253 264 275 284 290 297 303 304 307 309 312 315 317 319 321 322 324 320 315 312 309 311
222 200 196 191 189 191 202 189 165 134 111 152 148 131 186 188 184 191 190 187 184 182 182 182 185 188 188 188 188 188 189 189 190 192 196 199 202 205 207 210 213 214 216 215 210 206 204 201 200 201 201 199 199 202 204 203 204 210 214 217 222 223 221 223 223 226 232 233 240 250 255 258 259 253 253 258 264 272 279 283 287 292 296 299 300 304 308 311 318 321 322 327 332 327 315 311 314
248 214 203 192 193 199 192 168 141 94 122 166 144 134 236 218 194 195 189 187 187 184 184 185 186 188 187 186 187 189 191 193 194 196 200 204 207 209 211 211 211 213 212 209 204 201 199 198 196 194 193 192 195 200 201 202 207 212 217 222 226 228 230 230 229 233 239 241 248 255 260 264 263 263 269 270 271 274 278 278 278 285 289 289 290 293 293 299 306 308 308 313 317 315 308 306 311
257 232 207 198 187 189 184 168 154 140 189 190 165 154 200 231 218 208 191 180 188 191 190 190 188 186 187 186 187 190 191 193 196 199 202 205 208 210 211 210 209 209 207 203 201 199 197 196 193 191 190 189 191 197 200 203 209 214 219 225 229 234 237 237 239 243 249 250 251 256 261 263 263 269 275 272 268 272 278 279 280 283 286 293 296 293 290 294 298 296 296 298 300 301 297 297 304
248 234 209 201 175 171 176 171 178 178 137 183 193 129 125 200 221 206 188 181 188 197 198 195 192 190 189 189 190 191 193 195 196 198 201 204 208 210 211 210 208 206 204 202 200 198 196 194 192 191 189 188 190 196 201 205 210 215 219 222 227 234 238 239 242 247 252 255 256 261 268 274 279 286 287 267 245 250 277 289 297 298 304 313 311 308 310 310 308 308 309 308 310 310 304 303 309
240 234 209 192 167 169 172 172 191 178 117 171 228 120 123 220 235 167 179 189 191 200 201 197 195 194 192 191 193 194 195 197 198 199 202 204 206 209 209 208 206 205 205 203 201 198 196 193 191 192 190 189 192 196 201 205 209 214 218 222 227 234 239 240 246 249 250 252 254 260 267 273 280 286 290 271 243 249 272 283 292 305 317 319 314 317 324 328 329 329 331 334 335 333 326 322 324
236 237 212 169 139 162 171 175 181 150 141 190 206 182 164 242 248 163 174 201 203 203 202 200 197 195 194 194 195 196 196 198 200 201 203 204 205 207 207 207 206 206 205 203 201 198 197 195 193 194 192 191 193 198 202 203 206 212 216 224 232 237 240 243 245 244 243 246 247 249 256 263 269 273 279 278 254 244 266 273 284 304 316 312 304 308 319 330 336 337 339 340 339 338 338 335 331
233 254 235 221 38 105 155 174 130 131 189 214 203 195 189 221 240 195 187 205 203 195 194 201 199 196 196 197 196 196 196 197 199 202 204 205 206 206 204 203 204 205 205 204 202 200 199 198 196 196 195 195 197 198 200 202 205 211 216 225 234 238 244 246 241 235 237 240 238 241 248 256 263 267 271 266 240 234 257 267 282 301 303 291 279 285 299 313 323 330 335 333 330 330 330 330 327
217 247 199 228 295 54 76 19 79 157 223 231 203 198 199 220 241 215 213 216 204 189 186 193 197 197 197 197 197 197 197 198 199 201 203 204 204 204 201 200 202 203 203 203 203 201 201 201 200 200 200 200 200 199 200 203 206 209 213 220 229 238 244 243 236 229 229 232 233 238 245 251 259 265 263 244 222 233 252 261 276 285 279 266 257 264 276 289 306 315 321 323 325 326 323 323 324
203 199 111 129 264 329 106 204 179 196 235 233 193 185 199 224 224 208 212 219 213 195 190 192 192 192 194 197 197 196 196 197 199 200 202 202 202 202 199 197 200 201 201 201 203 203 201 202 204 204 204 203 202 202 201 203 207 208 211 216 222 232 238 235 229 224 224 226 225 224 229 239 249 254 249 230 223 238 251 258 268 270 266 273 279 272 271 283 294 292 293 304 315 320 320 319 317
187 188 148 138 148 166 228 228 213 214 252 252 191 172 199 248 242 209 205 213 211 203 198 193 189 188 191 197 198 196 196 197 199 200 201 202 202 201 199 198 200 201 201 200 202 204 204 204 205 206 207 207 206 205 203 203 207 209 209 213 218 224 228 226 222 221 220 216 213 211 217 230 237 235 233 230 234 244 250 255 260 263 280 302 308 306 300 294 292 282 270 278 299 312 312 310 304
204 174 150 161 154 163 215 207 194 204 236 260 206 168 192 209 233 210 200 208 209 205 199 187 185 188 191 196 197 195 195 197 199 201 202 203 203 202 200 200 202 203 203 202 203 206 207 207 207 207 208 209 209 208 205 202 203 207 210 212 214 216 217 218 217 220 219 211 208 208 212 223 227 221 219 224 232 238 245 254 264 279 293 298 302 303 299 297 299 296 287 290 305 312 309 301 288
225 142 121 175 175 160 189 195 189 178 205 249 213 199 210 204 263 248 201 207 204 195 182 169 179 189 189 192 196 195 195 197 200 202 203 204 203 203 203 202 204 205 205 205 206 207 209 209 209 209 208 209 211 211 208 203 200 204 209 210 211 209 208 209 209 214 217 211 207 209 216 224 222 219 221 223 229 242 255 273 291 293 289 287 291 291 290 294 301 305 307 309 309 306 305 298 282
216 165 171 213 174 144 145 229 262 91 154 262 239 259 291 289 306 322 107 168 174 168 170 171 176 181 182 188 193 194 195 197 201 205 204 204 203 204 205 205 205 206 206 207 209 210 211 210 210 210 210 210 212 214 212 206 200 200 206 210 207 203 201 202 203 206 209 209 206 208 219 230 232 232 230 228 250 272 279 286 286 281 279 279 280 278 279 285 292 299 304 304 303 298 297 294 285
146 201 208 208 135 110 115 178 340 57 170 276 294 257 277 222 267 320 73 137 172 173 175 175 171 173 179 187 191 194 197 199 203 206 206 204 204 204 205 206 207 209 210 211 212 214 214 213 213 212 211 211 212 215 214 210 203 200 203 208 203 197 197 198 199 202 204 206 206 206 216 231 229 221 210 233 275 259 286 287 276 274 279 282 282 281 281 281 284 292 295 296 297 293 292 292 288
150 186 195 163 154 178 114 160 167 118 200 272 303 282 251 197 229 266 156 173 185 178 175 173 169 174 181 186 190 194 198 200 202 204 205 204 204 204 204 206 209 211 213 214 215 216 217 218 218 217 216 214 213 214 215 212 206 201 203 206 202 196 197 197 198 200 201 205 208 211 220 213 187 156 120 109 121 113 7 335 306 295 305 307 308 305 299 293 289 287 286 287 291 290 291 293 288
158 154 183 173 159 174 185 170 160 162 189 221 284 295 267 226 217 203 195 193 182 174 176 175 176 181 183 184 188 193 197 199 201 203 205 206 206 206 206 208 210 211 213 215 214 216 218 219 220 220 220 219 216 214 213 211 206 201 202 203 199 198 201 202 198 197 200 202 204 211 209 189 169 144 120 113 90 26 345 350 359 349 345 343 340 338 332 320 309 300 290 284 283 286 289 292 290
175 158 186 210 181 140 165 208 152 144 160 181 217 256 266 250 215 191 195 194 181 173 171 174 182 185 185 183 184 191 197 201 204 205 206 207 207 208 209 210 211 212 212 213 215 217 218 218 220 221 221 221 218 214 212 211 206 201 201 199 195 197 201 204 201 198 198 195 197 204 197 185 176 174 179 212 291 300 315 332 334 329 331 333 332 332 330 325 321 318 310 296 285 283 287 291 291
174 169 186 192 177 125 128 260 264 143 154 170 180 219 263 264 219 183 181 178 175 171 167 172 182 184 186 185 185 191 199 203 205 206 207 208 209 209 209 210 210 210 210 212 215 216 216 217 220 221 222 222 220 216 213 210 206 202 200 196 193 195 200 206 206 202 200 196 197 199 196 194 195 200 225 257 264 268 283 300 309 309 310 315 317 316 314 313 312 315 317 311 298 288 286 287 286